Page, AZ

1:23 AM MST on January 24, 2017 (GMT -0700)
Page Municipal

Weather History for KPGA - December, 2012

Change the Weather History Date:

Thursday, December 13, 2012

  Actual Average Record
Temperature  
Mean Temperature 46 °F -  
Max Temperature 55 °F 42 °F 69 °F (2016)
Min Temperature 37 °F 26 °F 2 °F (1961)
Degree Days  
Heating Degree Days 19    
Moisture  
Dew Point 16 °F    
Average Humidity 29    
Maximum Humidity 41    
Minimum Humidity 14    
Precipitation  
Precipitation 0.00 in - - ()
Sea Level Pressure  
Sea Level Pressure 29.84 in    
Wind  
Wind Speed 4 mph (SSE)    
Max Wind Speed 12 mph    
Max Gust Speed -    
Visibility 10 miles    
Events      
Averages and records for this station are not official NWS values.
T = Trace of Precipitation, MM = Missing Value Source: NWS Daily Summary

Daily Weather History Graph

Daily Weather History Graph

Search for Another Location

Airport or City:

Trip Planner

Search our weather history database for the weather conditions in past years. The results will help you decide how hot, cold, wet, or windy it might be!

Date:

Astronomy

Dec. 13, 2012 Rise Set
Actual Time 7:30 AM MST 5:09 PM MST
Civil Twilight 7:01 AM MST 5:38 PM MST
Nautical Twilight 6:29 AM MST 6:11 PM MST
Astronomical Twilight 5:57 AM MST 6:43 PM MST
Moon 7:43 AM MST (12/13) 5:55 PM MST (12/13)
Length of Visible Light 10h 37m
Length of Day
9h 39m
New Moon, 0% of the Moon is Illuminated
Dec 13
New Moon
Dec 19
First Quarter
Dec 28
Full
Jan 4
Last Quarter
Jan 11
New

Hourly Weather History & Observations

Time (MST) Temp. Windchill Dew Point Humidity Pressure Visibility Wind Dir Wind Speed Gust Speed Precip Events Conditions
12:53 AM 43.0 °F 40.3 °F 12.0 °F 28% 29.90 in 10.0 mi SSE 4.6 mph - N/A   Clear
1:53 AM 39.0 °F - 15.1 °F 38% 29.91 in 9.0 mi Calm Calm - N/A   Clear
2:53 AM 39.0 °F - 15.1 °F 38% 29.91 in 10.0 mi Calm Calm - N/A   Clear
3:53 AM 39.0 °F - 14.0 °F 36% 29.91 in 10.0 mi Calm Calm - N/A   Clear
4:53 AM 43.0 °F 39.5 °F 10.0 °F 26% 29.90 in 10.0 mi SE 5.8 mph - N/A   Clear
5:53 AM 41.0 °F 37.1 °F 9.0 °F 27% 29.91 in 10.0 mi SSE 5.8 mph - N/A   Clear
6:53 AM 39.0 °F - 10.0 °F 30% 29.93 in 10.0 mi Calm Calm - N/A   Clear
7:53 AM 37.0 °F - 15.1 °F 41% 29.93 in 10.0 mi Calm Calm - N/A   Clear
8:53 AM 41.0 °F 39.0 °F 10.9 °F 29% 29.93 in 10.0 mi SW 3.5 mph - N/A   Clear
9:53 AM 43.0 °F - 18.0 °F 37% 29.95 in 10.0 mi Calm Calm - N/A   Clear
10:53 AM 48.0 °F - 14.0 °F 26% 29.91 in 10.0 mi Variable 4.6 mph - N/A   Clear
11:53 AM 48.0 °F - 14.0 °F 26% 29.90 in 10.0 mi WNW 3.5 mph - N/A   Clear
12:53 PM 50.0 °F - 16.0 °F 26% 29.85 in 10.0 mi ENE 5.8 mph - N/A   Clear
1:53 PM 53.1 °F - 16.0 °F 23% 29.82 in 10.0 mi North 10.4 mph - N/A   Clear
2:53 PM 54.0 °F - 18.0 °F 24% 29.79 in 10.0 mi Variable 6.9 mph - N/A   Clear
4:53 PM 54.0 °F - 18.0 °F 24% 29.75 in 10.0 mi South 10.4 mph - N/A   Partly Cloudy
5:53 PM 53.6 °F - 19.4 °F 26% 29.82 in 10.0 mi South 11.5 mph - N/A   Scattered Clouds
6:53 PM 52.0 °F - 21.9 °F 31% 29.77 in 10.0 mi SSE 10.4 mph - N/A   Mostly Cloudy
7:53 PM 50.0 °F - 23.0 °F 35% 29.77 in 10.0 mi SSE 10.4 mph - N/A   Overcast
8:53 PM 48.0 °F - 21.9 °F 36% 29.75 in 10.0 mi SE 3.5 mph - N/A   Partly Cloudy
9:53 PM 48.0 °F - 21.9 °F 36% 29.73 in 10.0 mi South 4.6 mph - N/A   Clear
10:53 PM 48.0 °F - 21.9 °F 36% 29.71 in 10.0 mi Calm Calm - N/A   Clear
11:53 PM 48.0 °F - 21.9 °F 36% 29.68 in 10.0 mi Calm Calm - N/A   Overcast